Location: Gerlach
(40.6516°N, 119.3568°W)
Time: 10:36:18
(UTC-08:00)

ISS - Visible Passes

Search period start: 04 December 2022 00:00
Search period end: 14 December 2022 00:00
Orbit: 414 x 420 km, 51.6° (Epoch: 04 December)

Date Brightness Start Highest point End Pass type
(mag) Time Alt. Az. Time Alt. Az. Time Alt. Az.
04 Dec -3.1 17:24:07 10° NW 17:27:15 37° NNE 17:29:36 15° E visible
04 Dec -1.1 19:01:03 10° WNW 19:02:33 20° W 19:02:33 20° W visible
05 Dec -2.8 18:12:40 10° WNW 18:15:52 47° SW 18:17:19 27° SSE visible
06 Dec -3.8 17:24:24 10° NW 17:27:45 85° SW 17:31:04 10° SE visible
07 Dec -0.7 18:13:51 10° W 18:16:00 16° SW 18:18:08 10° S visible
08 Dec -1.5 17:25:02 10° WNW 17:27:56 28° SW 17:30:50 10° SSE visible
